Weather History for UMBB - January, 2013

Change the Weather History Date:

Tuesday, January 8, 2013

  Actual Average Record
Temperature  
Mean Temperature 24 °F -  
Max Temperature 24 °F - - ()
Min Temperature 23 °F - - ()
Degree Days  
Heating Degree Days 41    
Moisture  
Dew Point 17 °F    
Average Humidity 72    
Maximum Humidity 80    
Minimum Humidity 55    
Precipitation  
Precipitation 0.00 in - - ()
Sea Level Pressure  
Sea Level Pressure 30.33 in    
Wind  
Wind Speed 3 mph ()    
Max Wind Speed 7 mph    
Max Gust Speed -    
Visibility 5.2 miles    
Events Snow    
T = Trace of Precipitation, MM = Missing Value Source: Averaged Metar Reports

Daily Weather History Graph

Daily Weather History Graph

Search for Another Location

Airport or City:

Trip Planner

Search our weather history database for the weather conditions in past years. The results will help you decide how hot, cold, wet, or windy it might be!

Date:

Astronomy

Jan. 08, 2013 Rise Set
Actual Time 9:30 AM FET 5:31 PM FET
Civil Twilight 8:50 AM FET 6:11 PM FET
Nautical Twilight 8:07 AM FET 6:54 PM FET
Astronomical Twilight 7:26 AM FET 7:35 PM FET
Moon 5:38 AM FET (1/8) 2:19 PM FET (1/8)
Length of Visible Light 9h 21m
Length of Day
8h 00m
Waning Crescent, 16% of the Moon is Illuminated
Jan 8
Waning Crescent
Jan 11
New
Jan 19
First Quarter
Jan 27
Full
Feb 3
Last Quarter

Hourly Weather History & Observations

Time (FET) Temp. Windchill Dew Point Humidity Pressure Visibility Wind Dir Wind Speed Gust Speed Precip Events Conditions
12:00 AM 25 °F - 16 °F 56% 30.42 in 6 mi North 4.5 mph - -   Mostly Cloudy
3:00 AM 25 °F - 15 °F 55% 30.41 in 6 mi North 4.5 mph - -   Mostly Cloudy
5:00 AM 23.0 °F 17.1 °F 17.6 °F 80% 30.36 in 5.0 mi East 4.5 mph - N/A   Overcast
6:00 AM 24 °F - 17 °F 63% 30.40 in 6 mi NNE 2.2 mph - -   Mostly Cloudy
6:00 AM 23.0 °F 17.1 °F 17.6 °F 80% 30.36 in 5.0 mi East 4.5 mph - N/A   Overcast
7:00 AM 23.0 °F - 15.8 °F 74% 30.36 in 5.6 mi SE 2.2 mph - N/A   Overcast
8:00 AM 23.0 °F - 15.8 °F 74% 30.36 in 5.6 mi ESE 2.2 mph - N/A   Overcast
8:30 AM 23.0 °F 17.1 °F 15.8 °F 74% 30.36 in 5.0 mi ESE 4.5 mph - N/A   Overcast
9:00 AM 24 °F - 16 °F 62% 30.40 in 6 mi WNW 2.2 mph - -   Mostly Cloudy
9:00 AM 23.0 °F - 17.6 °F 80% 30.33 in 5.0 mi SE 2.2 mph - N/A   Overcast
9:30 AM 23.0 °F - 17.6 °F 80% 30.33 in 5.0 mi SE 2.2 mph - N/A   Overcast
10:00 AM 23.0 °F - 17.6 °F 80% 30.33 in 5.0 mi SE 2.2 mph - N/A   Overcast
10:30 AM 23.0 °F 17.1 °F 17.6 °F 80% 30.33 in 4.3 mi ESE 4.5 mph - N/A Snow Light Snow Showers
11:00 AM 23.0 °F - 17.6 °F 80% 30.33 in 4.3 mi SE 2.2 mph - N/A Snow Light Snow Showers
11:30 AM 23.0 °F 17.1 °F 17.6 °F 80% 30.33 in 4.3 mi SSE 4.5 mph - N/A Snow Light Snow Showers
12:00 PM 24 °F - 15 °F 58% 30.39 in 5 mi WSW 2.2 mph - -   Mist
12:00 PM 23.0 °F - 17.6 °F 80% 30.33 in 5.0 mi SSE 2.2 mph - N/A   Overcast
12:30 PM 23.0 °F - 17.6 °F 80% 30.33 in 5.0 mi SSE 2.2 mph - N/A   Overcast
1:00 PM 24.8 °F - 17.6 °F 74% 30.33 in 5.0 mi South 2.2 mph - N/A   Overcast
1:30 PM 24.8 °F - 17.6 °F 74% 30.30 in 5.0 mi SW 2.2 mph - N/A   Overcast
2:00 PM 24.8 °F - 17.6 °F 74% 30.30 in 5.0 mi South 2.2 mph - N/A   Overcast
2:30 PM 24.8 °F 19.2 °F 17.6 °F 74% 30.30 in 5.0 mi SW 4.5 mph - N/A   Overcast
3:00 PM 24 °F - 15 °F 55% 30.34 in 6 mi WSW 2.2 mph - -   Overcast
3:00 PM 24.8 °F 19.2 °F 17.6 °F 74% 30.27 in 4.3 mi WSW 4.5 mph - N/A   Overcast
3:30 PM 24.8 °F - 17.6 °F 74% 30.27 in 5.0 mi SW 2.2 mph - N/A   Overcast
4:00 PM 23.0 °F - 15.8 °F 74% 30.27 in 5.0 mi SSW 2.2 mph - N/A   Overcast
4:30 PM 23.0 °F 14.9 °F 15.8 °F 74% 30.27 in 4.3 mi WSW 6.7 mph - N/A   Overcast
6:00 PM 24 °F - 16 °F 59% 30.29 in 6 mi South 4.5 mph - -   Overcast
9:00 PM 24 °F - 15 °F 57% 30.27 in 6 mi SW 6.7 mph - -   Overcast